STARLINK-35631, 66121

Orbit data source: Space-Track

STARLINK-35631, 66121 is a payload satellite owned by SpaceX/Seattle (US) in LEO that was launched on Wed, 22 Oct 2025 UTC via an FALCON 9 launch vehicle from the Air Force Western Test Range (AFWTR). Payload-class satellites include a variety of spacecraft equipped with specific instruments for various scientific and technological missions. These include communications satellites like Starlink; space stations such as the ISS; scientific satellites like the Hubble; Earth observation satellites from companies like Planet Labs, Umbra, and HawkEye 360; GPS; miniature CubeSats for education and research; and military/defense satellites.

Loading next visibility...
Identifier
66121, 2025-237H
Orbit
LEO
Country
Flag of USUS
Related business
Manufacturer
SpaceX/Seattle
Mission
Operational Commercial Communications
Bus & Motor
STARLINK V2MO, Unknown motor
Mass
575 kg wet, ~530 kg dry
Launch date (UTC)
2025-10-22 (4 months ago)
Launch vehicle
FALCON 9
Launch site
Air Force Western Test Range (AFWTR)
Object type
Payload
Rocket body
Debris
Shape & HBR
Box + 2 Pan, 17.7 m
Radar Cross Section
36.964 m²

Expand to show TLE details & history
Last TLE update: 17 hours ago

TLE from 17 hours ago
0 STARLINK-35631
1 66121U 25237H   26061.41337747  .00025298  00000-0  86369-3 0  9997
2 66121  53.1600  73.6272 0001430  86.4016 273.7148 15.30187063 21495
Epoch: 2026-03-02T09:55Z
TLE epoch observation values (Epoch: 2026-03-02T09:55:15.813Z)
Latitude
-0.00004°
Longitude
124.60414°
Altitude
476.09 km
Speed
7.629 km/s
True Right ascension
04h 54m 30s
True Declination
0° 00' 00"
Sunlit
Object was in daylight at epoch
Visualization orbit readout
Latitude
Unknown
Longitude
Unknown
Altitude
Unknown
Speed
Unknown
Apparent Right ascension
Unknown
Apparent Declination
Unknown
Sunlit
N/A
Visualization observer readout
Local Sidereal Time
06:57:27
Azimuth
Unknown
Elevation
Unknown
Doppler factor
Unknown
Orbital elements
Apogee altitude
476.49 km
Perigee altitude
474.53 km
Semi-major axis
6,853.647 km
Eccentricity
0.00014
Inclination
53.16°
RAAN
73.6272°
Arg. of periapsis
86.4016°
True anomaly
273.69845°
Mean anomaly
273.7148°
Eccentric anomaly
273.70662°
Mean motion
3.82526 °/min
Orbital period
94.11 mins
BSTAR
0.00086369
Loading maneuver chart data...
Computing Atmospheric mass density...
Loading historical data...
Loading historical data...
Loading historical data...
Loading historical data...
Loading historical data...
Loading historical data...
Loading historical data...

Documentation

Showing up to 5 results
|